Regional Weather Roundup
Issued by NWS Cleveland, OH

Home | Current Version | Previous Version | Graphics & Text | Print | Product List | Glossary On
Versions: 1 2 3 4 5 6 7 8 9 10 11 12 13 14 15 16 17 18 19 20 21 22 23 24 25 26 27 28 29 30 31 32 33 34 35 36 37 38 39 40 41 42 43 44 45 46 47 48 49 50
450
ASUS41 KCLE 230012
RWRCLE
OHIO REGIONAL WEATHER ROUNDUP
NATIONAL WEATHER SERVICE WILMINGTON, OH
700 PM EST SUN JAN 22 2017

NOTE: "FAIR" INDICATES FEW OR NO CLOUDS BELOW 12,000 FEET WITH NO
SIGNIFICANT WEATHER AND/OR OBSTRUCTIONS TO VISIBILITY.

OHZ001>008-015>018-024>027-034-035-043-044-230100-
   NORTHWEST OHIO

CITY           SKY/WX    TMP DP  RH WIND       PRES   REMARKS
DEFIANCE       MOCLDY    49  47  93 NE13      29.57R FOG
FINDLAY        FAIR      48  44  86 NE12      29.55S
TOLEDO EXPRESS FOG       46  46 100 NE8       29.59S VSB 1/2
TOLEDO EXEC    FOG       42  42 100 NE9       29.61R VSB 1/4
LIMA           FAIR      53  50  89 NE12      29.54R
$$

OHZ009>014-019>023-028>033-038-089-230100-
   NORTHEAST OHIO

CITY           SKY/WX    TMP DP  RH WIND       PRES   REMARKS
CLE-HOPKINS    CLOUDY    45  39  79 N5        29.60R
CLE-LAKEFRONT  CLOUDY    38  37  97 NE9       29.58R
CUY CO. ARPT   MOCLDY    52  50  93 E6        29.59R
LORAIN-ELYRIA  MOCLDY    45  41  86 E8        29.57F
ASHTABULA      MOCLDY    45  43  93 NE7       29.61R
AKRON-CANTON   CLOUDY    54  48  80 NE8       29.56S
WOOSTER        FAIR      53  47  79 NE10      29.55F
MANSFIELD      FAIR      53  48  83 NE8       29.55R
YOUNGSTOWN     CLOUDY    54  47  77 NE7       29.59R
$$

OHZ042-051>053-060>062-070>072-077>081-230100-
  SOUTHWEST OHIO

CITY           SKY/WX    TMP DP  RH WIND       PRES   REMARKS
CINC-COVINGTON CLOUDY    59  48  67 NE13      29.45R
CINC-LUNKEN    CLOUDY    59  50  72 NE8       29.45R
HAMILTON       CLOUDY    60  48  64 NE7       29.48R
DAYTON         MOCLDY    55  47  74 NE10      29.50R
WRIGHT-PAT AFB FAIR      56  47  71 NE7       29.49R
DAYTON GENERAL CLOUDY    58  46  64 NE12      29.47R
WILMINGTON     CLOUDY    55  49  80 NE9       29.47R
$$

OHZ036-037-039>041-045>050-054>059-063>069-073>076-082>088-230100-
  CENTRAL AND SOUTHEAST OHIO

CITY           SKY/WX    TMP DP  RH WIND       PRES   REMARKS
COLUMBUS       MOCLDY    60  46  59 NE15      29.49S
OSU AIRPORT    CLOUDY    57  50  77 NE8       29.49S
BOLTON FIELD   NOT AVBL
RICKENBACK AFB   N/A     56  49  76 NE9       29.49R
NEWARK         FAIR      59  47  64 NE3       29.50S
MARION         FAIR      53  47  79 N9        29.53S
LANCASTER      CLOUDY    56  48  74 NE7       29.49R
ZANESVILLE     CLOUDY    59  45  59 NE6       29.50F
NEW PHILLY     CLOUDY    57  49  74 NE6       29.54S
$$




USA.gov is the U.S. government's official web portal to all federal, state and local government web resources and services.